[[{"header":{"parameterUnit":"m.s-1","parameterCategory":2,"la1":30.2991,"la2":30.254,"lo1":-89.0895,"lo2":-89.0444,"dy":0.0017,"dx":0.0017,"nx":28,"ny":28,"refTime":"2025-06-08T03:00:00:Z","depth":"0","parameterNumber":2,"parameterNumberName":"U-component_of_CURRENTS"},"data":[0,0,0,0,0,0,0,0,0,0,0,0,0,0,0,0,0,0,0,0,0,0,0,0,0,0,0,0,0,0,0,0,0,0,0,0,0,0,0,0,0,0,0,0,0,0,0,0,0,0,0,0,0,0,0,0,0,0,-0.2706,-0.2704,0,-0.2575,-0.2573,-0.2572,-0.2544,-0.2545,-0.2545,-0.2546,-0.249,-0.2488,-0.2486,0,0,0,0,0,0,0,0,0,0,0,0,0,-0.2797,-0.2797,-0.2706,-0.2704,-0.2702,-0.2575,-0.2573,-0.2572,-0.2544,-0.2545,-0.2545,-0.2546,-0.2491,-0.2489,-0.2486,0,0,0,0,0,0,0,0,0,0,0,0,0,-0.2723,-0.2796,-0.2706,-0.2671,-0.2666,-0.2575,-0.2573,-0.2571,-0.2543,-0.2545,-0.2546,-0.2547,-0.2492,-0.2489,-0.2486,-0.2443,0,0,-0.2476,-0.2474,0,0,0,0,0,0,0,0,-0.2728,-0.2721,-0.2678,-0.2673,-0.2668,-0.2575,-0.2585,-0.2531,-0.2543,-0.2593,-0.2546,-0.2547,-0.2523,-0.2517,-0.2493,-0.2441,-0.2438,-0.2475,-0.2473,-0.2472,-0.2471,0,0,0,0,0,0,0,-0.2733,-0.2725,-0.2656,-0.2676,-0.267,-0.2615,-0.2608,-0.2574,-0.2557,-0.2588,-0.2585,-0.2567,-0.2522,-0.2496,-0.2491,-0.2437,-0.2475,-0.2473,-0.2471,-0.2469,-0.2452,-0.2453,0,0,0,0,0,0,-0.275,-0.2731,-0.266,-0.2652,-0.2699,-0.2613,-0.2605,-0.2605,-0.2555,-0.2547,-0.2566,-0.2566,-0.2501,-0.2495,-0.2489,-0.2538,-0.2472,-0.2469,-0.2467,-0.245,-0.2452,-0.2454,0,0,0,0,0,0,-0.2753,-0.2746,-0.2666,-0.2685,-0.2671,-0.2611,-0.2612,-0.2602,-0.2576,-0.2537,-0.2531,-0.2549,-0.2501,-0.2494,-0.2481,-0.2532,-0.2467,-0.2464,-0.2449,-0.2451,-0.2453,-0.257,0,0,0,0,0,0,-0.2757,-0.2749,-0.2748,-0.2687,-0.2671,-0.2618,-0.261,-0.2599,-0.2561,-0.256,-0.252,-0.2516,-0.2502,-0.2486,-0.2478,-0.2526,-0.2462,-0.2447,-0.245,-0.2452,-0.2565,-0.2576,-0.2586,0,0,0,0,0,-0.2761,-0.273,-0.275,-0.274,-0.2675,-0.2617,-0.2603,-0.2565,-0.256,-0.2546,-0.2536,-0.2518,-0.2499,-0.2483,-0.2474,-0.2523,-0.2445,-0.2449,-0.2452,-0.256,-0.2574,-0.2586,0,0,0,0,0,0,-0.2754,-0.2722,-0.2742,-0.2704,-0.2679,-0.2612,-0.2568,-0.2562,-0.2537,-0.2535,-0.2517,-0.2511,-0.2527,-0.2496,-0.248,-0.2527,-0.2476,-0.2478,-0.2562,-0.2575,-0.2585,-0.2567,-0.2459,0,0,0,0,0,-0.2761,-0.2735,-0.2714,-0.2681,-0.2666,-0.2626,-0.2594,-0.2582,-0.255,-0.2538,-0.2522,-0.2514,-0.2529,-0.2528,-0.2517,-0.2522,-0.2438,-0.2553,-0.2564,-0.2573,-0.2552,-0.2456,-0.2456,-0.2465,-0.2465,-0.2465,0,0,-0.2748,-0.2723,-0.271,-0.2679,-0.2644,-0.2662,-0.2609,-0.2558,-0.2598,-0.2536,-0.256,-0.2539,-0.2536,-0.2564,-0.2569,-0.2547,-0.2532,-0.2578,-0.2586,-0.2559,-0.2459,-0.2458,-0.2457,-0.2467,-0.2467,-0.2466,0,0,-0.2712,-0.269,-0.2678,-0.2674,-0.2639,-0.2638,-0.2635,-0.2593,-0.2594,-0.261,-0.2601,-0.2602,-0.2601,-0.2619,-0.2632,-0.2685,-0.2588,-0.2692,-0.2736,-0.2646,-0.2643,-0.2639,-0.2549,-0.2536,-0.2703,-0.2704,-0.2704,0,-0.2711,-0.2712,-0.2661,-0.267,-0.2667,-0.2648,-0.2667,-0.268,-0.2652,-0.2628,-0.2638,-0.2619,-0.2639,-0.2669,-0.2723,-0.2713,-0.2624,-0.2694,-0.2657,-0.2652,-0.2646,-0.2553,-0.2538,-0.271,-0.2709,-0.2708,-0.2708,0,-0.2693,-0.2719,-0.2694,-0.2739,-0.2723,-0.2718,-0.2745,-0.2739,-0.2744,-0.2738,-0.2726,-0.2734,-0.2702,-0.2753,-0.2774,-0.2763,-0.2701,-0.2677,-0.262,-0.2652,-0.2553,-0.2535,-0.2718,-0.2716,-0.2714,-0.2713,0,0,-0.2666,-0.269,-0.27,-0.2705,-0.2762,-0.2714,-0.2796,-0.2803,-0.2781,-0.2805,-0.2764,-0.2853,-0.2783,-0.2792,-0.2798,-0.2774,-0.2716,-0.2723,-0.2715,-0.2626,-0.2485,-0.2399,-0.237,-0.2664,-0.2661,-0.2659,-0.2437,0,-0.2696,-0.2707,-0.2741,-0.2773,-0.2767,-0.2791,-0.2832,-0.2828,-0.2831,-0.2789,-0.2799,-0.2771,-0.2826,-0.279,-0.278,-0.2717,-0.2668,-0.2776,-0.2472,-0.2463,-0.2376,-0.2346,-0.2216,-0.2002,-0.2419,-0.2416,-0.2413,0,-0.27,-0.2698,-0.2711,-0.2718,-0.2713,-0.2738,-0.2701,-0.2744,-0.273,-0.2711,-0.2688,-0.2673,-0.2675,-0.2698,-0.2588,-0.2638,-0.2565,-0.2527,-0.2516,-0.2371,-0.2341,-0.2034,-0.1952,-0.1942,-0.2384,-0.2386,-0.2388,0,-0.2593,-0.268,-0.2661,-0.2673,-0.2689,-0.2664,-0.2684,-0.2674,-0.2664,-0.2634,-0.2595,-0.2567,-0.2532,-0.2454,-0.2424,-0.2471,-0.226,-0.23,-0.2146,-0.2139,-0.1934,-0.1913,-0.1793,-0.2174,-0.2174,-0.2175,-0.2176,0,-0.2543,-0.2522,-0.2594,-0.2541,-0.2482,-0.2542,-0.2477,-0.2474,-0.2496,-0.2446,-0.2513,-0.2463,-0.2464,-0.2377,-0.2339,-0.2168,-0.2168,-0.2119,-0.2062,-0.1976,-0.1963,-0.1869,-0.1928,-0.2167,-0.2168,-0.217,-0.2171,0,-0.2315,-0.2405,-0.2351,-0.2387,-0.2391,-0.2305,-0.2346,-0.2301,-0.236,-0.2306,-0.2298,-0.234,-0.2232,-0.2205,-0.2069,-0.2034,-0.1849,-0.1832,-0.1741,-0.1679,-0.156,-0.1631,-0.1451,-0.1413,-0.1618,-0.1614,-0.1611,0,-0.2153,-0.2123,-0.2163,-0.211,-0.2095,-0.2061,-0.2034,-0.2156,-0.2164,-0.2217,-0.2171,-0.212,-0.2041,-0.1834,-0.1733,-0.1571,-0.1656,-0.139,-0.1485,-0.1501,-0.1538,-0.1634,-0.1625,-0.1263,-0.1258,-0.1253,-0.1249,0,-0.1837,-0.1886,-0.1852,-0.1784,-0.1745,-0.1717,-0.174,-0.1748,-0.1896,-0.1895,-0.1875,-0.1832,-0.1713,-0.1512,-0.1353,-0.1272,-0.1365,-0.129,-0.1302,-0.1239,-0.133,-0.1282,-0.1486,-0.1208,-0.1212,-0.1215,-0.1217,-0.1219,-0.16,-0.1525,-0.154,-0.1444,-0.1409,-0.1344,-0.1311,-0.1347,-0.1335,-0.1281,-0.148,-0.1298,-0.1303,-0.107,-0.1015,-0.0878,-0.1039,-0.0868,-0.0945,-0.1036,-0.1024,-0.1149,-0.0825,-0.0827,-0.0829,-0.083,-0.0831,0,-0.1328,-0.1293,-0.1193,-0.1117,-0.1018,-0.1082,-0.1092,-0.1059,-0.0957,-0.0831,-0.0795,-0.0673,-0.0577,-0.0601,-0.055,-0.0536,-0.0591,-0.0569,-0.0675,-0.0677,-0.0732,-0.0743,-0.0389,-0.0389,-0.039,-0.039,-0.039,-0.039,-0.1176,-0.1046,-0.1022,-0.0786,-0.0731,-0.0641,-0.0633,-0.0521,-0.0436,-0.0145,0.0047,0.0078,-0.0128,-0.0336,-0.039,-0.0391,-0.0475,-0.0458,-0.0561,-0.0618,-0.0653,-0.0688,-0.0709,-0.0354,-0.0355,-0.0439,-0.044,-0.044]},{"header":{"parameterUnit":"m.s-1","parameterCategory":2,"la1":30.2991,"la2":30.254,"lo1":-89.0895,"lo2":-89.0444,"dy":0.0017,"dx":0.0017,"nx":28,"ny":28,"refTime":"2025-06-08T03:00:00:Z","depth":"0","parameterNumber":3,"parameterNumberName":"V-component_of_CURRENTS"},"data":[0,0,0,0,0,0,0,0,0,0,0,0,0,0,0,0,0,0,0,0,0,0,0,0,0,0,0,0,0,0,0,0,0,0,0,0,0,0,0,0,0,0,0,0,0,0,0,0,0,0,0,0,0,0,0,0,0,0,-0.0013,-0.0012,0,0.002,0.0021,0.0021,0.0061,0.0062,0.0063,0.0064,0.0164,0.0166,0.0168,0,0,0,0,0,0,0,0,0,0,0,0,0,-0.0012,-0.0013,-0.0013,-0.0012,-0.0012,0.002,0.0021,0.0021,0.0061,0.0062,0.0063,0.0064,0.0164,0.0166,0.0168,0,0,0,0,0,0,0,0,0,0,0,0,0,-0.0002,-0.0013,-0.0013,0.0015,0.0018,0.002,0.0021,0.0021,0.0061,0.0062,0.0064,0.0065,0.0163,0.0165,0.0168,0.0158,0,0,0.0176,0.0178,0,0,0,0,0,0,0,0,-0.0002,-0.0002,0.001,0.0013,0.0016,0.0041,0.0058,0.0071,0.0061,0.0041,0.0064,0.0066,0.013,0.0135,0.0134,0.0162,0.0167,0.0177,0.0178,0.018,0.018,0,0,0,0,0,0,0,-0.0003,-0.0003,-0.0003,0.0011,0.0014,0.0036,0.0038,0.006,0.0077,0.0043,0.0047,0.0055,0.0132,0.0131,0.0136,0.0168,0.0177,0.0179,0.0181,0.0182,0.0255,0.0256,0,0,0,0,0,0,-0.0005,-0.0004,-0.0004,-0.0001,0.0013,0.0035,0.0037,0.0029,0.0075,0.0084,0.0054,0.0057,0.0125,0.0133,0.014,0.0202,0.018,0.0182,0.0184,0.0255,0.0255,0.0256,0,0,0,0,0,0,-0.0005,-0.0006,-0.0005,0.0002,0.0004,0.0033,0.0024,0.0029,0.0025,0.0083,0.0093,0.0045,0.0127,0.0136,0.0166,0.0204,0.0183,0.0186,0.0255,0.0255,0.0256,0.0281,0,0,0,0,0,0,-0.0006,-0.0007,-0.0026,0.0001,0.0003,-0.0017,0.0023,0.0029,0.003,0.0034,0.0078,0.0089,0.0129,0.0161,0.0168,0.0208,0.0188,0.0254,0.0255,0.0255,0.028,0.0283,0.0285,0,0,0,0,0,-0.0006,-0.0054,-0.0028,-0.0028,-0.0021,-0.0018,-0.0016,0.0009,0.0028,0.0012,0.0059,0.0088,0.0171,0.0163,0.0172,0.0213,0.0254,0.0255,0.0255,0.0279,0.0282,0.0285,0,0,0,0,0,0,-0.0083,-0.0053,-0.0024,-0.0064,-0.004,-0.001,-0.0031,-0.0003,0.0017,0.0023,0.0082,0.0095,0.0135,0.0157,0.0147,0.0233,0.0221,0.0223,0.0236,0.0239,0.0241,0.031,0.019,0,0,0,0,0,-0.0102,-0.0117,-0.0079,-0.0109,-0.0103,-0.0065,-0.0064,-0.004,-0.0011,-0.0002,0.0042,0.0091,0.0142,0.0175,0.0203,0.0245,0.0298,0.0277,0.028,0.0282,0.0341,0.0468,0.049,0.0258,0.0258,0.0258,0,0,-0.0137,-0.0124,-0.0132,-0.0123,-0.0107,-0.0088,-0.0064,-0.007,-0.0014,0.0006,0.0068,0.0085,0.0147,0.0201,0.0223,0.0231,0.0353,0.0282,0.0284,0.0345,0.0472,0.0495,0.0516,0.0259,0.0258,0.0258,0,0,-0.0203,-0.0206,-0.0226,-0.0209,-0.0182,-0.0139,-0.0141,-0.0104,-0.0051,-0.001,0.0043,0.0106,0.0136,0.0239,0.0285,0.0319,0.0347,0.0288,0.0383,0.0503,0.0525,0.0546,0.0558,0.0579,0.031,0.031,0.031,0,-0.0227,-0.0233,-0.0235,-0.024,-0.0195,-0.0158,-0.0128,-0.0085,-0.0031,0.0053,0.0008,0.0153,0.0186,0.0351,0.0359,0.0338,0.0356,0.0368,0.0513,0.0534,0.0555,0.0563,0.0587,0.0311,0.0311,0.0311,0.0311,0,-0.03,-0.0277,-0.0295,-0.025,-0.0231,-0.0203,-0.0123,-0.0063,-0.0004,0.0065,0.0197,0.0243,0.0351,0.0356,0.0368,0.0537,0.0478,0.0485,0.0516,0.0581,0.0582,0.0607,0.0313,0.0312,0.0312,0.0312,0,0,-0.0332,-0.0327,-0.0315,-0.0254,-0.0204,-0.0175,-0.0074,0.0076,0.0178,0.023,0.037,0.0476,0.0496,0.0552,0.058,0.0694,0.0808,0.0645,0.0651,0.0674,0.0989,0.0839,0.085,0.0828,0.0834,0.084,0.0901,0,-0.0324,-0.0304,-0.0303,-0.0216,-0.0157,-0.0074,0.0018,0.0138,0.0239,0.0354,0.0485,0.0563,0.0573,0.0592,0.0725,0.0787,0.0886,0.0786,0.091,0.0914,0.0791,0.0882,0.0936,0.0988,0.0925,0.0929,0.0932,0,-0.0328,-0.0291,-0.0228,-0.0096,-0.007,-0.0034,0.0182,0.0256,0.0429,0.0493,0.0628,0.0662,0.0846,0.0795,0.1036,0.0955,0.099,0.1033,0.1036,0.0932,0.0815,0.093,0.1035,0.1183,0.0969,0.0966,0.0964,0,-0.0257,-0.0192,-0.0113,-0.0084,0.0011,0.0092,0.0158,0.0313,0.0395,0.0562,0.0592,0.081,0.0855,0.1019,0.1072,0.1064,0.1267,0.127,0.118,0.1164,0.1262,0.1245,0.1564,0.1459,0.1459,0.1459,0.1459,0,-0.0175,-0.0097,-0.008,-0.0034,0.0074,0.0117,0.0238,0.0343,0.0442,0.0525,0.0636,0.0712,0.0911,0.1014,0.1108,0.1193,0.1306,0.1237,0.1213,0.1252,0.1234,0.1405,0.1428,0.1461,0.1461,0.146,0.146,0,-0.0097,-0.0076,-0.0001,0.0071,0.0103,0.0159,0.0221,0.0301,0.0382,0.0483,0.0512,0.0652,0.0777,0.0915,0.1123,0.1186,0.1369,0.1292,0.1251,0.1222,0.1281,0.1298,0.1497,0.1602,0.1267,0.1264,0.1262,0,-0.0042,-0.0006,0.0024,0.0053,0.0082,0.0151,0.0203,0.0277,0.0331,0.045,0.0489,0.0586,0.0676,0.0863,0.1007,0.1145,0.1257,0.1232,0.1275,0.1334,0.134,0.1328,0.1405,0.1384,0.1383,0.1383,0.1382,0,0.0043,0.001,0.0023,0.0053,0.0096,0.0155,0.0216,0.0233,0.0322,0.0418,0.0518,0.058,0.0685,0.086,0.0941,0.1038,0.1336,0.1209,0.138,0.156,0.1478,0.1546,0.1198,0.1374,0.1375,0.1375,0.1376,0.1376,0.0065,0.0052,0.0025,0.0065,0.0108,0.0166,0.0172,0.0259,0.0343,0.0498,0.055,0.0731,0.0865,0.0996,0.1063,0.1258,0.1232,0.1396,0.1432,0.1429,0.1506,0.1047,0.1111,0.111,0.111,0.1109,0.1109,0,0.0102,0.0078,0.0078,0.0106,0.0144,0.0172,0.02,0.0226,0.0341,0.057,0.0718,0.1038,0.1165,0.1281,0.1458,0.1561,0.1647,0.1625,0.1763,0.1853,0.1589,0.1573,0.161,0.161,0.161,0.161,0.161,0.161,0.0139,0.0102,0.0086,0.0147,0.0181,0.0178,0.0176,0.0275,0.0402,0.0765,0.1063,0.1282,0.1487,0.1652,0.1873,0.1913,0.2109,0.1982,0.2087,0.2027,0.2014,0.2001,0.2004,0.213,0.2131,0.2429,0.2432,0.2434]}],[{"header":{"parameterUnit":"m.s-1","parameterCategory":2,"la1":30.2991,"la2":30.254,"lo1":-89.0895,"lo2":-89.0444,"dy":0.0017,"dx":0.0017,"nx":28,"ny":28,"refTime":"2025-06-08T03:00:00:Z","depth":"2","parameterNumber":2,"parameterNumberName":"U-component_of_CURRENTS"},"data":[0,0,0,0,0,0,0,0,0,0,0,0,0,0,0,0,0,0,0,0,0,0,0,0,0,0,0,0,0,0,0,0,0,0,0,0,0,0,0,0,0,0,0,0,0,0,0,0,0,0,0,0,0,0,0,0,0,0,-0.2379,-0.2379,0,-0.2443,-0.2444,-0.2444,-0.2476,-0.2476,-0.2476,-0.2476,-0.2442,-0.2441,-0.244,0,0,0,0,0,0,0,0,0,0,0,0,0,-0.2312,-0.2313,-0.2379,-0.238,-0.2381,-0.2443,-0.2444,-0.2445,-0.2476,-0.2476,-0.2476,-0.2476,-0.2442,-0.2441,-0.244,0,0,0,0,0,0,0,0,0,0,0,0,0,-0.2354,-0.2313,-0.2378,-0.2405,-0.2408,-0.2443,-0.2444,-0.2445,-0.2476,-0.2476,-0.2476,-0.2477,-0.2443,-0.2441,-0.2439,-0.2425,0,0,-0.2434,-0.2434,0,0,0,0,0,0,0,0,-0.2351,-0.2356,-0.24,-0.2403,-0.2407,-0.2453,-0.2408,-0.2434,-0.2476,-0.2448,-0.2476,-0.2477,-0.2437,-0.2436,-0.2447,-0.2423,-0.2422,-0.2434,-0.2433,-0.2433,-0.2432,0,0,0,0,0,0,0,-0.2348,-0.2353,-0.2402,-0.2401,-0.2405,-0.2424,-0.243,-0.2414,-0.2437,-0.2451,-0.2454,-0.2464,-0.2438,-0.2448,-0.2446,-0.2421,-0.2434,-0.2433,-0.2432,-0.2431,-0.2451,-0.2452,0,0,0,0,0,0,-0.2342,-0.235,-0.24,-0.2404,-0.2381,-0.2425,-0.2432,-0.2437,-0.244,-0.2442,-0.2463,-0.2465,-0.2451,-0.2448,-0.2445,-0.25,-0.2433,-0.2431,-0.243,-0.2449,-0.2451,-0.2453,0,0,0,0,0,0,-0.234,-0.2346,-0.2398,-0.2381,-0.2389,-0.2426,-0.2432,-0.2438,-0.2459,-0.2451,-0.2451,-0.248,-0.2451,-0.2447,-0.2447,-0.2496,-0.243,-0.2429,-0.2447,-0.245,-0.2452,-0.2564,0,0,0,0,0,0,-0.2338,-0.2345,-0.2346,-0.238,-0.239,-0.2435,-0.2432,-0.2439,-0.2466,-0.2468,-0.2465,-0.2462,-0.2451,-0.245,-0.2445,-0.2493,-0.2428,-0.2446,-0.2448,-0.2451,-0.2559,-0.257,-0.258,0,0,0,0,0,-0.2335,-0.236,-0.2346,-0.2352,-0.239,-0.2436,-0.2443,-0.2469,-0.2466,-0.2486,-0.248,-0.2462,-0.2465,-0.2449,-0.2444,-0.2492,-0.2444,-0.2448,-0.2451,-0.2554,-0.2568,-0.2579,0,0,0,0,0,0,-0.2341,-0.2366,-0.2352,-0.2382,-0.2405,-0.2442,-0.2469,-0.2474,-0.2487,-0.2484,-0.2469,-0.2466,-0.2488,-0.2466,-0.2449,-0.2505,-0.2456,-0.2458,-0.2536,-0.2549,-0.2559,-0.2559,-0.2426,0,0,0,0,0,-0.2335,-0.2354,-0.2376,-0.2398,-0.2413,-0.2433,-0.2454,-0.2466,-0.2483,-0.2491,-0.2481,-0.2479,-0.2496,-0.2502,-0.2497,-0.2518,-0.2454,-0.2548,-0.2559,-0.2568,-0.2564,-0.2517,-0.2522,-0.2463,-0.2463,-0.2463,0,0,-0.2335,-0.2358,-0.2363,-0.2398,-0.2419,-0.2462,-0.2448,-0.2486,-0.2527,-0.248,-0.252,-0.2505,-0.2506,-0.2542,-0.2551,-0.2532,-0.2548,-0.2572,-0.258,-0.2571,-0.2521,-0.2526,-0.2531,-0.2466,-0.2465,-0.2465,0,0,-0.2375,-0.2372,-0.2406,-0.2431,-0.2467,-0.2486,-0.2498,-0.2526,-0.2547,-0.2571,-0.2562,-0.2573,-0.2579,-0.2604,-0.2619,-0.2678,-0.2598,-0.2679,-0.2743,-0.2698,-0.2702,-0.2705,-0.2614,-0.2607,-0.2694,-0.2694,-0.2695,0,-0.2371,-0.2415,-0.2424,-0.2474,-0.2493,-0.2502,-0.2541,-0.2581,-0.2602,-0.261,-0.2596,-0.261,-0.262,-0.2677,-0.2718,-0.2706,-0.2637,-0.27,-0.2711,-0.2713,-0.2713,-0.2619,-0.2611,-0.27,-0.27,-0.2699,-0.2698,0,-0.2441,-0.2472,-0.2503,-0.2557,-0.2581,-0.2618,-0.2658,-0.2683,-0.269,-0.2707,-0.2732,-0.273,-0.2726,-0.2762,-0.2771,-0.2801,-0.2734,-0.2722,-0.2678,-0.2726,-0.2623,-0.2613,-0.2709,-0.2706,-0.2705,-0.2703,0,0,-0.2411,-0.2527,-0.2531,-0.2561,-0.2617,-0.2645,-0.2715,-0.2764,-0.2786,-0.2812,-0.2816,-0.2894,-0.2847,-0.2858,-0.2855,-0.2857,-0.2827,-0.2806,-0.2801,-0.2713,-0.2677,-0.2527,-0.2499,-0.2808,-0.2808,-0.2807,-0.2596,0,-0.2446,-0.2553,-0.2597,-0.2671,-0.2706,-0.2736,-0.2785,-0.2827,-0.2843,-0.2849,-0.2873,-0.2871,-0.2901,-0.2875,-0.2889,-0.2842,-0.2806,-0.2882,-0.2645,-0.2637,-0.2497,-0.2486,-0.235,-0.2141,-0.2585,-0.2583,-0.2581,0,-0.2454,-0.2535,-0.2608,-0.2695,-0.2711,-0.2765,-0.2797,-0.2839,-0.2871,-0.2862,-0.2867,-0.2855,-0.2882,-0.2867,-0.2812,-0.285,-0.2764,-0.2727,-0.2717,-0.2528,-0.2467,-0.2169,-0.2104,-0.2562,-0.2564,-0.2565,-0.2566,0,-0.2359,-0.2516,-0.257,-0.2601,-0.271,-0.2749,-0.2802,-0.2837,-0.2853,-0.2846,-0.2826,-0.2833,-0.2798,-0.2751,-0.2697,-0.2735,-0.2581,-0.2611,-0.2382,-0.2369,-0.2181,-0.2151,-0.2516,-0.2517,-0.2517,-0.2518,-0.2518,0,-0.2311,-0.2358,-0.2552,-0.2564,-0.2652,-0.2709,-0.2745,-0.2788,-0.2796,-0.2783,-0.2809,-0.2767,-0.2767,-0.2697,-0.2648,-0.2464,-0.2522,-0.2366,-0.2305,-0.2213,-0.219,-0.2509,-0.2511,-0.251,-0.2511,-0.2513,-0.2514,0,-0.2139,-0.2267,-0.233,-0.2499,-0.259,-0.2612,-0.275,-0.2764,-0.2767,-0.2736,-0.2726,-0.2706,-0.2582,-0.2544,-0.242,-0.236,-0.2229,-0.2131,-0.2,-0.1927,-0.2055,-0.2065,-0.1861,-0.1854,-0.1848,-0.1843,-0.1839,0,-0.2071,-0.2085,-0.2268,-0.2328,-0.2417,-0.2524,-0.2609,-0.2719,-0.2736,-0.2684,-0.2664,-0.2545,-0.2411,-0.2174,-0.2029,-0.1835,-0.1981,-0.1616,-0.1687,-0.2027,-0.1988,-0.2008,-0.2026,-0.1471,-0.1465,-0.1459,-0.1455,0,-0.1928,-0.1962,-0.2012,-0.214,-0.2269,-0.2396,-0.254,-0.2569,-0.2626,-0.2625,-0.2511,-0.2385,-0.2101,-0.1818,-0.1567,-0.1468,-0.1655,-0.1491,-0.1854,-0.1668,-0.1645,-0.1612,-0.1645,-0.1405,-0.141,-0.1413,-0.1416,-0.1418,-0.181,-0.1798,-0.1857,-0.1954,-0.2084,-0.2194,-0.2213,-0.2346,-0.2364,-0.2255,-0.2298,-0.2034,-0.1873,-0.1382,-0.1219,-0.1079,-0.1207,-0.1191,-0.1214,-0.1243,-0.1245,-0.1214,-0.089,-0.0891,-0.0893,-0.0895,-0.0896,0,-0.17,-0.1691,-0.1718,-0.1794,-0.1804,-0.1977,-0.2108,-0.2045,-0.2009,-0.1994,-0.1874,-0.1553,-0.1284,-0.1106,-0.0789,-0.0692,-0.0757,-0.0677,-0.08,-0.0847,-0.0889,-0.0883,-0.0426,-0.0425,-0.0424,-0.0423,0,0,-0.1646,-0.1601,-0.1593,-0.1527,-0.1563,-0.1571,-0.1599,-0.1544,-0.1506,-0.1366,-0.1265,-0.1272,-0.1142,-0.0858,-0.0725,-0.0526,-0.0709,-0.0488,-0.0864,-0.1063,-0.1106,-0.1169,-0.1207,0,0,0,0,0]},{"header":{"parameterUnit":"m.s-1","parameterCategory":2,"la1":30.2991,"la2":30.254,"lo1":-89.0895,"lo2":-89.0444,"dy":0.0017,"dx":0.0017,"nx":28,"ny":28,"refTime":"2025-06-08T03:00:00:Z","depth":"2","parameterNumber":3,"parameterNumberName":"V-component_of_CURRENTS"},"data":[0,0,0,0,0,0,0,0,0,0,0,0,0,0,0,0,0,0,0,0,0,0,0,0,0,0,0,0,0,0,0,0,0,0,0,0,0,0,0,0,0,0,0,0,0,0,0,0,0,0,0,0,0,0,0,0,0,0,-0.0377,-0.0375,0,-0.0173,-0.017,-0.0168,-0.0056,-0.0056,-0.0055,-0.0055,0.0055,0.0057,0.006,0,0,0,0,0,0,0,0,0,0,0,0,0,-0.0572,-0.057,-0.0377,-0.0375,-0.0372,-0.0173,-0.017,-0.0167,-0.0056,-0.0056,-0.0055,-0.0055,0.0054,0.0057,0.006,0,0,0,0,0,0,0,0,0,0,0,0,0,-0.0438,-0.0569,-0.0377,-0.0294,-0.0285,-0.0174,-0.017,-0.0166,-0.0056,-0.0056,-0.0055,-0.0055,0.0053,0.0057,0.0061,0.0083,0,0,0.0074,0.0076,0,0,0,0,0,0,0,0,-0.0446,-0.0431,-0.0309,-0.0299,-0.0289,-0.0141,-0.0198,-0.0088,-0.0056,-0.0141,-0.0055,-0.0055,-0.0021,-0.001,0.0031,0.0088,0.0093,0.0074,0.0077,0.0078,0.008,0,0,0,0,0,0,0,-0.0456,-0.0439,-0.0294,-0.0306,-0.0294,-0.0233,-0.0214,-0.0176,-0.0085,-0.0133,-0.0125,-0.0105,-0.0016,0.0027,0.0034,0.0094,0.0074,0.0078,0.008,0.0082,0.0176,0.0176,0,0,0,0,0,0,-0.0489,-0.0448,-0.0301,-0.0288,-0.037,-0.023,-0.0209,-0.0187,-0.0083,-0.0066,-0.0106,-0.0101,0.002,0.0029,0.0038,0.0077,0.0078,0.0082,0.0085,0.0176,0.0176,0.0176,0,0,0,0,0,0,-0.0494,-0.0478,-0.0309,-0.0365,-0.0339,-0.0228,-0.0203,-0.0183,-0.013,-0.0061,-0.0046,-0.0073,0.002,0.0032,0.007,0.0081,0.0084,0.0088,0.0176,0.0176,0.0176,0.0148,0,0,0,0,0,0,-0.0501,-0.0481,-0.047,-0.0367,-0.0338,-0.0243,-0.0203,-0.018,-0.012,-0.0111,-0.0028,-0.0018,0.0021,0.0063,0.0074,0.0087,0.0091,0.0176,0.0176,0.0176,0.0149,0.0147,0.0146,0,0,0,0,0,-0.0508,-0.0478,-0.0471,-0.0452,-0.0328,-0.0243,-0.0221,-0.014,-0.0119,-0.0092,-0.0048,-0.002,0.0071,0.0066,0.0079,0.0094,0.0176,0.0176,0.0176,0.015,0.0148,0.0146,0,0,0,0,0,0,-0.0547,-0.0462,-0.0451,-0.0396,-0.0335,-0.0225,-0.018,-0.0141,-0.0078,-0.0075,-0.0018,-0.0004,0.0029,0.0062,0.0056,0.0119,0.0127,0.013,0.0103,0.0101,0.01,0.0089,0.0095,0,0,0,0,0,-0.0559,-0.0521,-0.0441,-0.0402,-0.0369,-0.0283,-0.0236,-0.0192,-0.0126,-0.0095,-0.0049,-0.0002,0.004,0.0069,0.0103,0.0143,0.0196,0.0159,0.0157,0.0155,0.0154,0.0289,0.0301,0.0176,0.0176,0.0176,0,0,-0.0568,-0.0514,-0.0494,-0.0409,-0.0349,-0.0316,-0.0252,-0.0185,-0.016,-0.0098,-0.0054,-0.0013,0.0044,0.0085,0.0105,0.0117,0.0205,0.0155,0.0154,0.0153,0.0291,0.0303,0.0315,0.0176,0.0176,0.0176,0,0,-0.0568,-0.0515,-0.0492,-0.0451,-0.0376,-0.0323,-0.0312,-0.0221,-0.0175,-0.0135,-0.0088,-0.0033,0.0022,0.0082,0.0115,0.0126,0.0183,0.0125,0.0124,0.0255,0.0268,0.0279,0.0308,0.0323,0.0137,0.0137,0.0137,0,-0.0594,-0.055,-0.0472,-0.045,-0.042,-0.0339,-0.0323,-0.0264,-0.0182,-0.013,-0.0134,-0.0019,0.0028,0.0107,0.0106,0.0126,0.0174,0.0129,0.0256,0.0269,0.0282,0.0309,0.0326,0.0135,0.0135,0.0135,0.0136,0,-0.0581,-0.0562,-0.0538,-0.0498,-0.0452,-0.042,-0.0348,-0.0294,-0.0243,-0.0178,-0.0098,-0.0038,0.0053,0.006,0.0085,0.0188,0.0179,0.0232,0.0266,0.0293,0.0319,0.0337,0.0133,0.0134,0.0134,0.0134,0,0,-0.0642,-0.055,-0.0556,-0.0537,-0.048,-0.0429,-0.0385,-0.0289,-0.0243,-0.0168,-0.009,-0.0017,0.0045,0.0085,0.013,0.0217,0.0326,0.0252,0.026,0.0284,0.0548,0.0473,0.0484,0.0416,0.042,0.0424,0.0512,0,-0.0677,-0.0663,-0.0587,-0.057,-0.0569,-0.0464,-0.0428,-0.0333,-0.0261,-0.017,-0.0053,0.0015,0.0048,0.0082,0.019,0.0292,0.038,0.0292,0.0514,0.0518,0.0456,0.0507,0.0496,0.057,0.0529,0.0532,0.0535,0,-0.0737,-0.0711,-0.0723,-0.0617,-0.0594,-0.0543,-0.0441,-0.0387,-0.0239,-0.0176,-0.0059,0.0011,0.0149,0.0168,0.0391,0.0335,0.0444,0.0509,0.0517,0.0474,0.0479,0.0547,0.0604,0.0565,0.0563,0.056,0.0558,0,-0.0886,-0.0802,-0.081,-0.0793,-0.068,-0.0598,-0.0488,-0.0377,-0.031,-0.0165,-0.0124,0.0051,0.0151,0.0313,0.0439,0.0447,0.0648,0.0703,0.0725,0.0717,0.0763,0.0752,0.0885,0.0885,0.0884,0.0884,0.0884,0,-0.0993,-0.098,-0.0854,-0.0862,-0.0826,-0.067,-0.0559,-0.0488,-0.0318,-0.0232,-0.0114,-0.0055,0.0205,0.0332,0.0451,0.0613,0.0691,0.0723,0.076,0.0741,0.0728,0.0779,0.0765,0.0887,0.0887,0.0886,0.0885,0,-0.1152,-0.1109,-0.1102,-0.0958,-0.0922,-0.0873,-0.0598,-0.0522,-0.0373,-0.0267,-0.0221,-0.0057,0.0113,0.0276,0.0535,0.0632,0.0771,0.0809,0.0699,0.0721,0.0743,0.0727,0.0882,0.088,0.0879,0.0878,0.0877,0,-0.1209,-0.125,-0.121,-0.1231,-0.114,-0.0982,-0.0911,-0.0641,-0.0519,-0.0291,-0.0266,-0.0081,0.0035,0.0305,0.0518,0.0705,0.074,0.0786,0.0824,0.0735,0.0756,0.0742,0.0727,0.0856,0.0855,0.0854,0.0853,0,-0.1299,-0.1319,-0.1298,-0.1378,-0.1323,-0.1238,-0.1025,-0.0965,-0.0643,-0.0551,-0.0396,-0.0288,0.0057,0.0284,0.0516,0.0627,0.0751,0.0774,0.0796,0.0829,0.0712,0.0731,0.0719,0.0847,0.0847,0.0848,0.0848,0.0848,-0.1347,-0.1377,-0.1404,-0.1449,-0.1459,-0.148,-0.1364,-0.1179,-0.1058,-0.0846,-0.0609,-0.0383,-0.0039,0.0278,0.0468,0.0688,0.0727,0.0796,0.08,0.0804,0.0757,0.0643,0.0749,0.075,0.075,0.075,0.075,0,-0.1377,-0.1399,-0.1453,-0.1503,-0.1528,-0.1528,-0.1437,-0.1289,-0.1196,-0.1,-0.078,-0.0439,-0.0175,0.0191,0.0549,0.0724,0.0752,0.0739,0.0773,0.0779,0.0785,0.0738,0.0725,0.0725,0.0725,0.0725,0,0,-0.1394,-0.1434,-0.1451,-0.1524,-0.1567,-0.1565,-0.1551,-0.147,-0.1268,-0.11,-0.0863,-0.061,-0.0117,0.0077,0.0348,0.0576,0.0614,0.0576,0.0585,0.0602,0.0604,0.0815,0.0748,0,0,0,0,0]}],[{"header":{"parameterUnit":"m.s-1","parameterCategory":2,"la1":30.2991,"la2":30.254,"lo1":-89.0895,"lo2":-89.0444,"dy":0.0017,"dx":0.0017,"nx":28,"ny":28,"refTime":"2025-06-08T03:00:00:Z","depth":"4","parameterNumber":2,"parameterNumberName":"U-component_of_CURRENTS"},"data":[0,0,0,0,0,0,0,0,0,0,0,0,0,0,0,0,0,0,0,0,0,0,0,0,0,0,0,0,0,0,0,0,0,0,0,0,0,0,0,0,0,0,0,0,0,0,0,0,0,0,0,0,0,0,0,0,0,0,-0.1701,-0.1702,0,-0.1806,-0.1807,-0.1808,-0.1856,-0.1856,-0.1856,-0.1856,-0.193,-0.1931,-0.1933,0,0,0,0,0,0,0,0,0,0,0,0,0,-0.1588,-0.159,-0.1701,-0.1702,-0.1704,-0.1805,-0.1807,-0.1808,-0.1856,-0.1856,-0.1856,-0.1856,-0.1929,-0.1931,-0.1934,0,0,0,0,0,0,0,0,0,0,0,0,0,-0.1658,-0.159,-0.1701,-0.1741,-0.1746,-0.1805,-0.1807,-0.1808,-0.1856,-0.1856,-0.1856,-0.1856,-0.1928,-0.1931,-0.1934,-0.1951,0,0,-0.1943,-0.1944,0,0,0,0,0,0,0,0,-0.1654,-0.1662,-0.1734,-0.1738,-0.1744,-0.1819,-0.1794,-0.1855,-0.1856,-0.1813,-0.1856,-0.1856,-0.189,-0.1896,-0.1915,-0.1954,-0.1957,-0.1943,-0.1945,-0.1946,-0.1947,0,0,0,0,0,0,0,-0.1649,-0.1658,-0.1741,-0.1735,-0.1741,-0.177,-0.1779,-0.1806,-0.1849,-0.1817,-0.1821,-0.1834,-0.1893,-0.1912,-0.1917,-0.1958,-0.1943,-0.1945,-0.1947,-0.1948,-0.2074,-0.2075,0,0,0,0,0,0,-0.1637,-0.1653,-0.1738,-0.1744,-0.17,-0.1771,-0.1782,-0.1794,-0.1849,-0.1858,-0.1834,-0.1836,-0.1907,-0.1913,-0.1919,-0.1989,-0.1946,-0.1949,-0.195,-0.2072,-0.2074,-0.2076,0,0,0,0,0,0,-0.1634,-0.1643,-0.1734,-0.1702,-0.1716,-0.1773,-0.1786,-0.1796,-0.1845,-0.1863,-0.1871,-0.1876,-0.1907,-0.1915,-0.1972,-0.199,-0.195,-0.1952,-0.207,-0.2073,-0.2075,-0.2099,0,0,0,0,0,0,-0.163,-0.1641,-0.1661,-0.1701,-0.1717,-0.1793,-0.1787,-0.1798,-0.1852,-0.1856,-0.1901,-0.1907,-0.1908,-0.1968,-0.1975,-0.1994,-0.1955,-0.2068,-0.2071,-0.2074,-0.2096,-0.2102,-0.2107,0,0,0,0,0,-0.1626,-0.1656,-0.1661,-0.1673,-0.1737,-0.1795,-0.1807,-0.1846,-0.1854,-0.1888,-0.1916,-0.1907,-0.1992,-0.1972,-0.198,-0.2,-0.2067,-0.207,-0.2074,-0.2094,-0.2101,-0.2106,0,0,0,0,0,0,-0.1625,-0.1665,-0.1672,-0.1714,-0.176,-0.1804,-0.1848,-0.1865,-0.1916,-0.1927,-0.1934,-0.1942,-0.1999,-0.2003,-0.1981,-0.2046,-0.2025,-0.2031,-0.2038,-0.2044,-0.205,-0.2022,-0.1957,0,0,0,0,0,-0.163,-0.1662,-0.1701,-0.1741,-0.1766,-0.181,-0.1844,-0.187,-0.1911,-0.1936,-0.1962,-0.199,-0.2016,-0.2034,-0.2064,-0.2103,-0.2082,-0.212,-0.2125,-0.2129,-0.2114,-0.2107,-0.2109,-0.2088,-0.2087,-0.2087,0,0,-0.1638,-0.1669,-0.1686,-0.1743,-0.1784,-0.1821,-0.1832,-0.1897,-0.1919,-0.1934,-0.1988,-0.202,-0.2035,-0.2078,-0.2102,-0.2084,-0.2128,-0.2134,-0.2137,-0.2119,-0.211,-0.2112,-0.2113,-0.209,-0.209,-0.2089,0,0,-0.1676,-0.1704,-0.1743,-0.1781,-0.1847,-0.1863,-0.1886,-0.1944,-0.1967,-0.2026,-0.2032,-0.2077,-0.2129,-0.2132,-0.2139,-0.2194,-0.2164,-0.2208,-0.2204,-0.2198,-0.2199,-0.2199,-0.2181,-0.218,-0.2202,-0.2202,-0.2202,0,-0.1687,-0.1715,-0.1767,-0.1816,-0.1828,-0.188,-0.1903,-0.1946,-0.2013,-0.2018,-0.2052,-0.2118,-0.2148,-0.2159,-0.2182,-0.2204,-0.2187,-0.2175,-0.2202,-0.2202,-0.2201,-0.2183,-0.2181,-0.2203,-0.2203,-0.2203,-0.2203,0,-0.1738,-0.1764,-0.1797,-0.1848,-0.1887,-0.1915,-0.1961,-0.2001,-0.2033,-0.2059,-0.2109,-0.2158,-0.2186,-0.221,-0.2217,-0.2226,-0.2211,-0.2214,-0.2177,-0.2204,-0.2184,-0.2182,-0.2206,-0.2205,-0.2205,-0.2204,0,0,-0.171,-0.1803,-0.1808,-0.1815,-0.1883,-0.191,-0.1954,-0.1976,-0.1992,-0.2074,-0.2075,-0.2156,-0.2187,-0.2197,-0.2215,-0.2215,-0.222,-0.2213,-0.2212,-0.2179,-0.2191,-0.1999,-0.1977,-0.2221,-0.2221,-0.2221,-0.2179,0,-0.1705,-0.1764,-0.1811,-0.1836,-0.1847,-0.1892,-0.1923,-0.1969,-0.2007,-0.2037,-0.2084,-0.2124,-0.2178,-0.2198,-0.2211,-0.2219,-0.2213,-0.223,-0.2183,-0.2181,-0.1993,-0.1968,-0.222,-0.2177,-0.2176,-0.2175,-0.2175,0,-0.1695,-0.1727,-0.1754,-0.1784,-0.1797,-0.1834,-0.1848,-0.1886,-0.1945,-0.1983,-0.2034,-0.2079,-0.2113,-0.2151,-0.2177,-0.2183,-0.2188,-0.2191,-0.219,-0.1991,-0.1981,-0.2144,-0.217,-0.217,-0.2171,-0.2171,-0.2171,0,-0.1593,-0.1657,-0.1659,-0.1676,-0.1753,-0.1768,-0.18,-0.1869,-0.189,-0.1945,-0.1969,-0.2028,-0.2049,-0.2082,-0.212,-0.2148,-0.2113,-0.2154,-0.1981,-0.1969,-0.2148,-0.2148,-0.2146,-0.2146,-0.2146,-0.2146,-0.2146,0,-0.1511,-0.1517,-0.1622,-0.1626,-0.1639,-0.1713,-0.1733,-0.1783,-0.1838,-0.1859,-0.1939,-0.1951,-0.2032,-0.2034,-0.2079,-0.1998,-0.2087,-0.1951,-0.193,-0.2162,-0.2164,-0.2146,-0.2146,-0.2144,-0.2145,-0.2145,-0.2145,0,-0.1407,-0.1468,-0.1488,-0.157,-0.16,-0.1617,-0.1702,-0.1714,-0.1784,-0.1802,-0.1818,-0.188,-0.1876,-0.1919,-0.1941,-0.1906,-0.1878,-0.1827,-0.2045,-0.2043,-0.1756,-0.1759,-0.1629,-0.1622,-0.1616,-0.161,-0.1606,0,-0.136,-0.1363,-0.1454,-0.1473,-0.1518,-0.1564,-0.1596,-0.1683,-0.1696,-0.1757,-0.1743,-0.1745,-0.1779,-0.1646,-0.1715,-0.1703,-0.1702,-0.1664,-0.173,-0.1702,-0.1697,-0.171,-0.1721,-0.1596,-0.1594,-0.1592,-0.1591,0,-0.127,-0.1321,-0.1347,-0.1387,-0.1426,-0.1457,-0.1505,-0.1501,-0.1584,-0.1662,-0.1621,-0.1591,-0.154,-0.1539,-0.1489,-0.1514,-0.1678,-0.1598,-0.1614,-0.1676,-0.166,-0.1664,-0.1682,-0.1569,-0.1572,-0.1574,-0.1575,0,-0.1217,-0.1221,-0.1264,-0.1283,-0.1325,-0.1319,-0.1367,-0.1373,-0.1397,-0.1479,-0.1465,-0.1483,-0.1534,-0.1437,-0.1429,-0.1376,-0.1386,-0.1368,-0.1396,-0.1421,-0.1366,-0.1316,-0.1067,0,0,0,0,0,-0.1154,-0.1143,-0.1152,-0.1158,-0.1187,-0.1209,-0.1286,-0.1336,-0.1426,-0.1357,-0.1405,-0.137,-0.1301,-0.1314,-0.1218,-0.1323,-0.1385,-0.1203,-0.138,-0.1447,-0.1472,-0.1423,0,0,0,0,0,0,-0.111,-0.1122,-0.1114,-0.104,-0.1015,-0.1034,-0.1078,-0.1147,-0.1121,-0.1223,-0.1198,-0.1265,-0.1225,-0.1326,-0.1182,-0.1181,-0.1258,-0.1225,-0.122,-0.1432,-0.1455,-0.1476,-0.1435,0,0,0,0,0]},{"header":{"parameterUnit":"m.s-1","parameterCategory":2,"la1":30.2991,"la2":30.254,"lo1":-89.0895,"lo2":-89.0444,"dy":0.0017,"dx":0.0017,"nx":28,"ny":28,"refTime":"2025-06-08T03:00:00:Z","depth":"4","parameterNumber":3,"parameterNumberName":"V-component_of_CURRENTS"},"data":[0,0,0,0,0,0,0,0,0,0,0,0,0,0,0,0,0,0,0,0,0,0,0,0,0,0,0,0,0,0,0,0,0,0,0,0,0,0,0,0,0,0,0,0,0,0,0,0,0,0,0,0,0,0,0,0,0,0,-0.0307,-0.0306,0,-0.0175,-0.0173,-0.0172,-0.012,-0.0121,-0.0121,-0.0122,-0.0019,-0.0016,-0.0013,0,0,0,0,0,0,0,0,0,0,0,0,0,-0.0424,-0.0423,-0.0307,-0.0306,-0.0304,-0.0175,-0.0173,-0.0172,-0.012,-0.0121,-0.0121,-0.0122,-0.002,-0.0017,-0.0013,0,0,0,0,0,0,0,0,0,0,0,0,0,-0.034,-0.0423,-0.0308,-0.0264,-0.0259,-0.0176,-0.0173,-0.0171,-0.012,-0.0121,-0.0122,-0.0122,-0.0021,-0.0017,-0.0012,0.003,0,0,0.0002,0.0004,0,0,0,0,0,0,0,0,-0.0345,-0.0336,-0.0272,-0.0267,-0.0261,-0.0166,-0.0177,-0.0105,-0.012,-0.0172,-0.0122,-0.0123,-0.0071,-0.0062,-0.0034,0.0035,0.0039,0.0003,0.0005,0.0007,0.0009,0,0,0,0,0,0,0,-0.0351,-0.0341,-0.0254,-0.027,-0.0263,-0.0219,-0.0209,-0.0163,-0.0119,-0.0167,-0.0164,-0.015,-0.0068,-0.0039,-0.0032,0.0041,0.0002,0.0007,0.001,0.0011,0.0099,0.0099,0,0,0,0,0,0,-0.0373,-0.0347,-0.0258,-0.025,-0.0306,-0.0217,-0.0205,-0.0195,-0.0119,-0.0108,-0.015,-0.0148,-0.0047,-0.0037,-0.0028,-0.0045,0.0007,0.0012,0.0015,0.01,0.0099,0.0099,0,0,0,0,0,0,-0.0376,-0.0367,-0.0264,-0.0296,-0.028,-0.0215,-0.0203,-0.0192,-0.0164,-0.0105,-0.0095,-0.0134,-0.0047,-0.0034,0.0003,-0.0039,0.0014,0.0018,0.0101,0.01,0.0099,-0.0035,0,0,0,0,0,0,-0.038,-0.0369,-0.0368,-0.0298,-0.0279,-0.0221,-0.0202,-0.0189,-0.0155,-0.0152,-0.0088,-0.0079,-0.0046,-0.0004,0.0008,-0.0031,0.0022,0.0101,0.01,0.0099,-0.003,-0.004,-0.0049,0,0,0,0,0,-0.0385,-0.0374,-0.0368,-0.0357,-0.028,-0.0221,-0.0207,-0.0162,-0.0154,-0.014,-0.0105,-0.0081,-0.0002,-0.0,0.0014,-0.0025,0.0102,0.01,0.0099,-0.0025,-0.0038,-0.0048,0,0,0,0,0,0,-0.0419,-0.0366,-0.0358,-0.0332,-0.0288,-0.0213,-0.019,-0.0164,-0.0121,-0.0122,-0.0074,-0.0062,-0.0047,-0.0005,-0.0005,0.0,0.0049,0.0051,-0.0051,-0.0062,-0.0071,-0.0141,0.0026,0,0,0,0,0,-0.043,-0.0413,-0.0356,-0.0337,-0.0315,-0.0256,-0.0227,-0.0199,-0.0151,-0.0132,-0.0093,-0.0058,-0.0037,-0.0026,0.0015,0.0026,0.0047,0.0008,-0.0001,-0.001,-0.0055,-0.0077,-0.0094,0.0095,0.0095,0.0095,0,0,-0.044,-0.0408,-0.04,-0.0345,-0.0305,-0.0296,-0.024,-0.0197,-0.0214,-0.0128,-0.0131,-0.0078,-0.0036,-0.0033,-0.0025,-0.0009,-0.0036,-0.0011,-0.002,-0.0061,-0.008,-0.0099,-0.0116,0.0094,0.0095,0.0095,0,0,-0.0455,-0.0423,-0.0419,-0.0392,-0.034,-0.031,-0.0305,-0.0238,-0.0232,-0.0208,-0.0175,-0.0165,-0.0091,-0.0108,-0.0101,-0.0137,-0.0078,-0.0098,-0.0217,-0.0237,-0.0255,-0.027,-0.0209,-0.0218,-0.0115,-0.0115,-0.0115,0,-0.0478,-0.0474,-0.0407,-0.0404,-0.0405,-0.033,-0.0348,-0.0326,-0.0265,-0.0283,-0.0226,-0.019,-0.0151,-0.0209,-0.0224,-0.017,-0.0129,-0.0182,-0.0256,-0.027,-0.0284,-0.0218,-0.0227,-0.0122,-0.0121,-0.012,-0.012,0,-0.0494,-0.0505,-0.0497,-0.0491,-0.0472,-0.0469,-0.044,-0.0433,-0.0407,-0.0396,-0.0411,-0.0351,-0.0345,-0.0325,-0.0286,-0.0368,-0.0284,-0.0259,-0.0241,-0.0312,-0.0236,-0.0242,-0.0131,-0.0129,-0.0127,-0.0125,0,0,-0.0543,-0.0521,-0.053,-0.0558,-0.0531,-0.0519,-0.0556,-0.0579,-0.0613,-0.0568,-0.0618,-0.0605,-0.0565,-0.0556,-0.0505,-0.0531,-0.0565,-0.0442,-0.044,-0.0406,-0.0542,-0.0387,-0.0377,-0.0545,-0.0548,-0.0551,-0.043,0,-0.06,-0.0633,-0.0608,-0.067,-0.0694,-0.0666,-0.0705,-0.0716,-0.0699,-0.0716,-0.0709,-0.0707,-0.0656,-0.0634,-0.0667,-0.058,-0.0596,-0.0596,-0.0458,-0.0454,-0.033,-0.0387,-0.0561,-0.0434,-0.0436,-0.0437,-0.0437,0,-0.0657,-0.0673,-0.0739,-0.0785,-0.0792,-0.082,-0.0875,-0.0893,-0.0912,-0.0893,-0.0913,-0.0861,-0.0899,-0.0821,-0.079,-0.0778,-0.0694,-0.0627,-0.062,-0.0451,-0.0314,-0.0358,-0.0448,-0.0447,-0.0447,-0.0446,-0.0445,0,-0.0742,-0.0787,-0.0853,-0.0866,-0.0885,-0.093,-0.0945,-0.0964,-0.0979,-0.1003,-0.0989,-0.1017,-0.0984,-0.0946,-0.0786,-0.0794,-0.0696,-0.0686,-0.0474,-0.0457,-0.0575,-0.056,-0.0699,-0.0699,-0.0699,-0.07,-0.07,0,-0.0822,-0.088,-0.0902,-0.0932,-0.1013,-0.1005,-0.1075,-0.1081,-0.1088,-0.1105,-0.1085,-0.1066,-0.1015,-0.0925,-0.0821,-0.0633,-0.0723,-0.0516,-0.0445,-0.0618,-0.0611,-0.0574,-0.0561,-0.0695,-0.0696,-0.0697,-0.0698,0,-0.0882,-0.0906,-0.0978,-0.1025,-0.1049,-0.1096,-0.1125,-0.1159,-0.1154,-0.1166,-0.117,-0.1107,-0.0971,-0.0853,-0.0728,-0.0635,-0.0494,-0.0402,-0.0533,-0.0466,-0.0235,-0.0231,-0.0207,-0.0201,-0.0197,-0.0192,-0.0189,0,-0.0903,-0.095,-0.1027,-0.1067,-0.1088,-0.1151,-0.1189,-0.1196,-0.121,-0.1168,-0.1169,-0.1043,-0.0974,-0.0673,-0.0558,-0.0331,-0.0299,-0.0234,-0.0332,-0.0267,-0.02,-0.0202,-0.0204,-0.0181,-0.018,-0.0178,-0.0177,0,-0.0935,-0.0972,-0.1011,-0.1091,-0.1152,-0.1205,-0.1251,-0.1259,-0.1252,-0.1254,-0.1136,-0.0985,-0.0795,-0.061,-0.039,-0.0248,-0.0301,-0.0183,-0.0195,-0.0286,-0.0234,-0.0173,-0.0181,-0.016,-0.0163,-0.0164,-0.0165,0,-0.0948,-0.098,-0.1038,-0.11,-0.1177,-0.1227,-0.1254,-0.1243,-0.1239,-0.1187,-0.1136,-0.0944,-0.0852,-0.0557,-0.0371,-0.0188,-0.0184,-0.019,-0.0202,-0.0219,-0.0255,-0.0193,-0.007,0,0,0,0,0,-0.0954,-0.0985,-0.1042,-0.1105,-0.1174,-0.1219,-0.1278,-0.1292,-0.1293,-0.1203,-0.1161,-0.0969,-0.0659,-0.0535,-0.0326,-0.03,-0.0165,-0.0053,-0.0182,-0.0065,-0.0085,-0.0113,0,0,0,0,0,0,-0.096,-0.1014,-0.1032,-0.109,-0.1133,-0.1205,-0.1248,-0.1252,-0.1192,-0.1166,-0.0995,-0.092,-0.0616,-0.0763,-0.0318,-0.0263,-0.032,0.0087,0.0091,-0.0054,-0.0072,-0.0088,-0.0123,0,0,0,0,0]}]]